FW9069 Weather Reports


Display with metric or nautical units.
time (UTC)temp
F
wind
direction
speed
MPH
gust
MPH
rain 1hr
in
rain 24hr
in
rain mn
in
humidity
%
barometer
mb
20260510140326 52 200 3.0 8.0 0.00 0.00 0.00 85 1018.6
20260510134831 52 232 3.0 9.0 0.00 0.00 0.00 85 1018.3
20260510133317 52 202 3.0 10.0 0.00 0.00 0.00 86 1018.2
20260510131854 52 227 5.0 10.0 0.00 0.00 0.00 87 1018.4
20260510130335 52 194 3.0 7.0 0.00 0.00 0.00 87 1018.2
20260510124821 52 229 4.0 15.0 0.00 0.00 0.00 87 1018.0
20260510123347 52 233 9.0 13.0 0.00 0.00 0.00 88 1017.7
20260510121813 52 229 9.0 17.0 0.00 0.00 0.00 88 1018.1
20260510120329 52 214 10.0 15.0 0.00 0.00 0.00 88 1017.9
20260510114839 52 227 6.0 10.0 0.00 0.00 0.00 88 1017.9
20260510113326 52 306 3.0 13.0 0.00 0.00 0.00 88 1017.9
20260510111835 52 238 10.0 22.0 0.00 0.00 0.00 87 1017.5
20260510110324 53 246 8.0 20.0 0.00 0.00 0.00 86 1017.6
20260510104827 53 232 3.0 11.0 0.00 0.00 0.00 85 1017.6
20260510103322 54 227 10.0 18.0 0.00 0.00 0.00 84 1017.1
20260510101830 54 225 13.0 21.0 0.00 0.00 0.00 84 1017.0
20260510100318 54 237 13.0 21.0 0.00 0.00 0.00 85 1016.9
20260510094828 54 221 12.0 22.0 0.00 0.00 0.00 84 1016.6
20260510093336 54 258 11.0 18.0 0.00 0.00 0.00 83 1016.5
20260510091822 54 240 14.0 25.0 0.00 0.00 0.00 83 1016.6
20260510090351 55 230 12.0 22.0 0.00 0.00 0.00 82 1016.6
20260510084836 56 234 11.0 18.0 0.00 0.00 0.00 80 1016.7
20260510083320 57 231 8.0 14.0 0.00 0.00 0.00 78 1016.6
20260510081828 58 224 7.0 14.0 0.00 0.00 0.00 76 1016.4
20260510080355 58 242 7.0 12.0 0.00 0.00 0.00 75 1016.7
20260510074821 58 229 7.0 14.0 0.00 0.00 0.00 77 1016.6
20260510073328 58 231 9.0 14.0 0.00 0.00 0.00 76 1016.6
20260510071838 58 248 10.0 17.0 0.00 0.00 0.00 77 1016.6
20260510070342 58 251 9.0 15.0 0.00 0.00 0.00 77 1016.5
20260510064831 59 245 11.0 17.0 0.00 0.00 0.00 75 1016.5
20260510063319 60 235 9.0 15.0 0.00 0.00 0.00 74 1016.4
20260510061827 61 237 8.0 15.0 0.00 0.00 0.00 71 1016.4
20260510060336 62 230 6.0 13.0 0.00 0.00 0.00 70 1016.3
20260510054826 62 240 4.0 11.0 0.00 0.00 0.00 70 1016.4
20260510053334 63 242 6.0 11.0 0.00 0.00 0.00 70 1016.3
20260510051822 63 233 8.0 17.0 0.00 0.00 0.00 69 1016.1
20260510050327 64 241 7.0 17.0 0.00 0.00 0.00 67 1015.9
20260510044835 64 243 8.0 18.0 0.00 0.00 0.00 66 1015.9
20260510043323 64 230 10.0 14.0 0.00 0.00 0.00 65 1015.9
20260510041833 65 226 8.0 15.0 0.00 0.00 0.00 65 1015.7
20260510040321 65 238 10.0 14.0 0.00 0.00 0.00 65 1015.6
20260510034831 66 224 8.0 13.0 0.00 0.00 0.00 63 1015.4
20260510033339 67 231 8.0 11.0 0.00 0.00 0.00 62 1015.3
20260510031849 68 230 7.0 12.0 0.00 0.00 0.00 60 1015.3
20260510030332 70 240 7.0 11.0 0.00 0.00 0.00 55 1015.3
20260510024824 72 233 4.0 6.0 0.00 0.00 0.00 47 1015.2
20260510023330 73 306 2.0 3.0 0.00 0.00 0.00 48 1015.2
20260510021838 73 332 0.0 0.0 0.00 0.00 0.00 46 1015.3
20260510020325 74 332 0.0 3.0 0.00 0.00 0.00 46 1015.2
20260510014835 74 319 2.0 4.0 0.00 0.00 0.00 45 1015.3
20260510013346 75 330 2.0 4.0 0.00 0.00 0.00 42 1015.3
20260510011835 75 329 1.0 6.0 0.00 0.00 0.00 42 1015.6
20260510010340 75 6 3.0 6.0 0.00 0.00 0.00 43 1015.6
20260510004829 76 321 3.0 5.0 0.00 0.00 0.00 45 1015.7
20260510003338 76 346 4.0 7.0 0.00 0.00 0.00 41 1015.9
20260510001827 76 320 3.0 5.0 0.00 0.00 0.00 36 1016.0
20260510000318 77 13 2.0 7.0 0.00 0.00 0.00 35 1016.2
20260509234822 77 303 2.0 6.0 0.00 0.00 0.00 37 1016.3
20260509233330 77 338 5.0 10.0 0.00 0.00 0.00 39 1016.4
20260509231834 77 333 2.0 7.0 0.00 0.00 0.00 41 1016.5
20260509230322 77 323 5.0 8.0 0.00 0.00 0.00 43 1016.7
20260509224827 76 322 2.0 9.0 0.00 0.00 0.00 49 1016.9
20260509223336 77 350 8.0 12.0 0.00 0.00 0.00 49 1016.9
20260509221822 77 345 1.0 10.0 0.00 0.00 0.00 52 1017.2
20260509220328 76 353 4.0 9.0 0.00 0.00 0.00 56 1017.5
20260509214830 75 317 4.0 10.0 0.00 0.00 0.00 56 1017.7
20260509213334 75 40 2.0 11.0 0.00 0.00 0.00 55 1017.9
20260509211838 75 360 4.0 9.0 0.00 0.00 0.00 58 1018.1
20260509210347 75 335 5.0 8.0 0.00 0.00 0.00 58 1018.1
20260509204832 74 327 2.0 7.0 0.00 0.00 0.00 58 1018.3
20260509203332 72 342 6.0 10.0 0.00 0.00 0.00 60 1018.4
20260509201818 72 342 2.0 6.0 0.00 0.00 0.00 59 1018.7
20260509200325 71 314 2.0 8.0 0.00 0.00 0.00 60 1018.8
20260509194850 70 321 3.0 8.0 0.00 0.00 0.00 61 1019.1
20260509193333 69 323 6.0 10.0 0.00 0.00 0.00 62 1019.3
20260509191821 68 330 4.0 8.0 0.00 0.00 0.00 65 1019.4
20260509190347 68 320 5.0 11.0 0.00 0.00 0.00 67 1019.6
20260509184832 66 302 2.0 9.0 0.00 0.00 0.00 72 1019.6
20260509183338 65 300 4.0 9.0 0.00 0.00 0.00 71 1019.8
20260509181826 64 310 4.0 6.0 0.00 0.00 0.00 74 1019.9
20260509180350 63 342 5.0 10.0 0.00 0.00 0.00 74 1020.0
20260509174833 62 325 4.0 7.0 0.00 0.00 0.00 77 1020.1
20260509173338 60 308 5.0 10.0 0.00 0.00 0.00 79 1020.1
20260509171820 59 327 5.0 10.0 0.00 0.00 0.00 79 1020.2
20260509170344 58 348 6.0 11.0 0.00 0.00 0.00 81 1020.3
20260509164825 57 329 6.0 10.0 0.00 0.00 0.00 82 1020.5
20260509163336 57 323 6.0 11.0 0.00 0.00 0.00 84 1020.6
20260509161824 56 336 3.0 8.0 0.00 0.00 0.00 85 1020.7
20260509160328 55 321 2.0 9.0 0.00 0.00 0.00 85 1021.0
20260509154837 54 341 6.0 9.0 0.00 0.00 0.00 87 1021.0
20260509153325 54 323 3.0 9.0 0.00 0.00 0.00 87 1021.1
20260509151834 53 326 5.0 8.0 0.00 0.00 0.00 89 1021.1
20260509150338 52 320 4.0 7.0 0.00 0.00 0.00 90 1021.5
20260509144827 52 333 4.0 8.0 0.00 0.00 0.00 91 1021.5
20260509143335 51 344 5.0 9.0 0.00 0.00 0.00 91 1021.5
20260509141823 51 340 4.0 7.0 0.00 0.00 0.00 93 1021.4